Theta_e
311 313 314 314 314 310 314 315 311 311 312 312 313 313 312 311 310 312 312 312 312 312 312 311 311 310 310 310 310 310 310 310 311 311 311 309 307 306 306 305 305 304 303 302
311 314 315 313 310 308 310 311 311 311 310 312 313 313 313 311 311 311 311 311 312 312 310 311 311 310 310 310 310 310 308 308 308 308 308 307 307 306 305 305 305 304 303 302
316 315 310 311 309 310 310 311 311 313 311 311 312 315 315 313 310 311 311 311 311 311 311 310 310 310 309 309 309 309 308 308 307 306 306 306 306 305 305 305 304 303 302 301
313 309 309 310 311 311 312 310 311 312 314 315 311 315 315 314 311 310 311 310 310 310 310 310 310 310 309 309 309 309 308 306 306 306 306 305 305 305 305 304 303 302 301 300
311 308 308 311 310 310 312 309 312 311 313 313 312 314 315 309 311 312 311 310 310 310 310 310 310 309 308 309 309 309 307 305 306 305 304 304 305 305 304 303 302 301 300 300
309 306 308 310 307 309 309 312 312 312 313 313 312 313 315 314 313 313 311 309 309 310 310 310 310 309 308 309 309 308 306 305 305 304 304 305 305 305 304 303 302 301 301 301
308 308 307 308 310 310 312 313 317 317 320 316 309 311 314 310 311 311 311 309 309 309 310 310 309 308 309 310 310 307 305 305 304 304 304 305 304 304 303 302 301 301 300 300
312 311 308 309 311 312 313 313 322 323 318 316 310 314 315 309 307 306 308 308 308 308 310 309 309 309 309 310 308 305 305 304 304 304 304 304 303 302 301 301 301 300 300 299
311 311 305 306 307 311 312 314 311 313 310 315 315 314 312 308 308 307 308 307 308 309 309 310 309 310 310 308 306 305 304 304 304 304 303 303 302 301 301 301 300 299 299 298
311 311 306 306 308 307 311 310 313 314 319 315 313 313 317 310 310 309 309 308 308 309 309 309 309 308 306 305 305 304 304 304 304 303 303 302 302 301 300 299 299 298 295 292
309 312 307 307 310 311 310 311 310 314 312 316 316 314 311 311 311 309 309 309 308 308 308 307 306 305 305 304 304 304 304 304 304 303 302 301 300 299 298 296 293 291 290 290
309 310 311 309 306 305 309 312 311 315 313 310 314 318 307 307 308 309 309 308 307 307 306 304 305 305 305 304 304 304 303 303 302 301 300 299 297 294 292 291 290 290 290 290
308 312 312 309 309 306 309 309 311 308 312 311 314 315 305 305 305 306 307 306 306 304 302 302 303 303 303 303 303 302 301 300 300 299 296 294 291 291 291 290 289 289 288 289
308 310 313 315 313 311 309 310 309 311 320 314 313 312 307 307 306 305 306 305 303 301 299 298 297 297 299 300 299 299 298 297 295 293 291 291 291 290 289 288 288 288 288 288
310 314 309 308 308 309 309 309 310 310 312 316 313 311 312 310 308 306 305 303 301 298 297 296 296 296 297 298 297 296 294 292 291 291 290 290 289 288 288 289 289 288 288 288
305 310 305 307 307 308 309 309 309 310 311 310 309 311 306 308 306 304 303 302 299 297 296 295 294 296 296 295 294 292 291 291 290 289 289 288 289 288 288 288 288 288 288 288
308 307 311 311 306 308 313 310 309 309 310 310 310 311 304 303 304 304 302 301 299 296 295 294 294 294 293 292 291 290 290 289 289 288 288 288 288 288 288 288 288 288 288 288
308 310 310 307 306 312 309 304 308 309 308 307 307 307 306 305 303 303 302 301 297 295 293 293 293 292 290 290 289 289 289 288 288 288 288 288 288 287 287 287 288 288 288 288
305 309 308 311 310 307 306 303 307 309 310 307 307 303 300 298 297 295 298 298 295 294 292 292 290 290 289 289 289 288 288 288 288 287 287 287 287 287 287 288 288 287 287 287
304 307 312 308 314 311 308 302 302 305 310 306 304 300 298 300 305 299 293 292 291 291 290 290 290 289 289 288 288 288 288 287 287 287 287 287 287 288 287 287 287 286 286 286
308 308 311 310 312 308 304 302 301 309 309 302 302 299 299 304 301 293 291 290 290 290 290 289 289 288 288 287 287 287 287 287 287 287 287 288 288 287 287 286 286 286 286 286
308 310 309 309 312 311 300 300 306 301 297 298 298 297 295 293 291 290 290 289 289 289 289 289 288 288 287 287 287 287 287 287 287 287 287 287 286 286 286 286 286 286 286 286
308 308 309 307 307 295 293 296 296 296 295 294 293 295 293 291 290 289 289 289 289 289 288 288 287 287 287 287 287 287 287 287 287 287 287 286 286 285 285 286 285 285 286 285
300 300 301 302 294 293 292 292 294 293 292 293 294 292 292 290 289 289 289 289 288 288 287 287 287 287 287 286 286 286 287 287 287 286 286 286 285 285 285 285 285 285 285 285
299 300 296 293 293 292 291 291 291 292 292 291 291 290 290 289 289 289 288 288 287 287 287 286 286 286 286 286 286 287 287 287 286 286 285 285 285 285 284 285 285 285 285 285
296 298 303 303 295 295 291 290 290 290 289 289 289 289 289 289 289 288 287 287 287 286 286 286 286 286 286 286 287 287 286 286 285 285 284 284 284 284 285 285 285 284 284 284
Wind_Speed
14 11 18 21 16 1 12 14 9 8 7 10 16 12 13 12 16 19 21 21 20 19 17 20 20 18 17 16 14 13 13 12 12 11 10 9 8 5 2 5 8 11 12 12
8 19 18 11 11 5 11 14 10 3 6 9 7 15 14 16 20 25 25 23 22 21 19 22 21 20 18 16 16 14 13 12 13 12 12 11 9 4 1 5 8 10 10 10
18 15 11 11 10 10 8 12 9 2 8 5 4 8 12 14 17 20 24 24 23 25 24 23 23 21 19 18 16 14 13 13 13 13 12 11 8 4 2 6 8 9 9 9
10 8 16 12 17 15 15 7 8 11 10 4 3 4 7 14 15 17 25 27 26 25 23 23 22 21 20 19 17 15 14 14 14 14 13 10 7 4 4 6 8 8 9 9
8 12 15 16 12 15 4 8 8 6 4 2 6 4 3 6 13 19 24 28 26 27 26 25 24 22 21 19 17 16 16 16 15 14 12 10 7 4 6 7 8 9 10 11
2 1 4 5 5 4 17 11 7 4 2 6 11 10 7 7 7 8 22 24 27 27 25 24 22 23 22 20 19 18 17 16 15 14 11 9 6 5 5 7 8 9 10 13
4 6 3 9 10 9 6 15 4 4 4 6 1 7 11 4 4 3 14 24 26 26 27 26 28 26 24 23 20 19 19 18 16 13 10 7 5 5 6 7 9 12 15 18
11 7 11 8 5 11 16 10 5 8 6 5 3 8 4 2 3 3 6 18 23 26 27 28 28 27 25 23 22 21 20 17 15 11 8 6 6 6 8 10 13 16 19 23
12 7 2 2 3 6 8 8 3 6 1 3 6 5 7 6 5 6 13 19 24 27 26 25 25 25 24 23 22 21 19 16 13 10 7 7 7 8 11 14 16 20 24 27
6 6 3 3 3 3 3 11 4 2 6 6 5 5 4 11 12 10 14 21 23 24 24 22 24 24 22 22 22 20 18 15 12 9 8 8 9 11 14 18 21 25 27 29
7 3 5 6 10 13 5 6 2 2 3 4 4 4 1 5 14 15 17 21 24 24 23 22 21 22 23 22 20 19 17 14 12 9 8 9 12 15 19 23 25 26 28 28
9 5 5 8 2 4 4 7 10 5 6 2 2 2 2 6 8 13 19 21 22 23 23 22 24 24 23 21 20 18 15 12 10 8 9 12 16 19 22 24 25 27 28 28
13 7 6 4 3 3 8 9 8 4 1 8 7 3 2 3 7 11 21 23 23 24 23 23 23 22 21 20 18 16 13 10 9 10 12 16 18 21 23 25 27 29 30 31
21 6 13 13 4 11 10 18 15 11 4 8 9 5 8 9 11 15 21 24 24 23 23 21 20 20 20 18 16 12 9 8 9 12 15 17 20 23 25 26 28 30 31 32
10 7 9 3 3 6 6 18 23 18 18 10 11 10 12 16 16 20 24 25 25 24 22 21 20 19 18 15 12 9 8 9 11 14 17 19 21 23 25 27 29 31 32 34
3 4 4 3 3 4 4 10 22 22 17 13 2 10 3 13 19 21 25 27 26 24 22 20 19 17 15 11 9 7 8 11 13 15 17 19 22 25 27 30 32 34 35 34
10 7 4 7 4 3 5 16 21 18 19 17 14 9 13 10 18 26 27 26 26 24 22 19 17 14 11 9 7 8 10 12 14 16 18 21 25 28 30 32 33 32 31 31
11 8 2 4 5 6 1 2 10 12 14 11 5 9 12 14 13 18 19 24 24 23 20 17 14 11 8 6 7 9 11 13 16 18 22 25 28 30 30 30 29 30 29 30
2 8 5 6 6 2 2 5 9 11 10 16 11 12 15 22 22 12 15 20 23 20 17 15 11 7 5 6 8 10 12 16 19 21 24 27 28 29 29 29 29 30 30 30
2 1 3 4 6 8 2 4 5 4 5 15 16 17 23 24 9 7 20 22 21 19 15 11 7 4 4 7 10 12 15 18 20 23 26 28 29 29 28 28 29 28 27 29
5 3 9 5 3 1 3 7 6 8 2 14 20 24 26 10 2 29 26 22 19 15 11 7 4 3 5 9 11 14 17 20 23 25 27 28 27 27 26 27 26 27 26 27
7 7 4 3 4 7 6 5 6 4 8 16 20 23 18 24 34 31 26 23 16 11 7 4 2 4 6 10 13 17 20 22 24 26 27 25 24 24 25 26 26 24 25 27
5 5 7 3 2 3 4 3 6 10 21 19 27 27 32 36 30 28 24 17 12 8 4 2 2 4 8 12 15 19 20 23 25 25 24 24 25 23 22 22 23 23 23 25
1 1 4 6 3 5 7 10 13 18 24 30 33 36 39 35 27 24 18 13 9 6 3 1 4 8 11 14 18 21 23 23 24 25 25 25 23 21 20 20 21 22 24 27
1 3 7 5 6 14 11 15 25 34 38 39 35 34 31 29 22 18 14 10 8 4 1 3 7 11 15 19 21 22 23 23 25 25 23 20 19 20 21 20 21 23 23 26
5 3 2 3 14 9 14 23 34 39 34 33 32 28 22 18 17 13 11 8 5 1 3 8 12 16 19 21 23 22 22 24 26 24 20 19 20 20 21 21 24 22 27 26
Wind_Direction
190 199 203 201 201 84 186 200 197 201 180 196 219 239 222 194 203 200 195 193 191 185 179 182 184 184 185 185 184 184 186 186 186 183 178 171 164 148 83 17 4 1 0 358
182 215 201 184 186 150 174 185 193 145 177 212 209 243 231 202 209 204 199 197 193 182 179 183 187 188 188 190 189 189 190 191 192 189 186 180 174 166 18 350 348 349 349 347
202 206 163 172 171 177 198 209 179 205 165 212 253 252 208 212 210 207 209 205 196 189 183 183 186 187 190 192 192 191 191 189 187 185 183 183 184 193 305 330 333 335 336 338
224 177 176 181 194 194 211 193 162 149 181 230 235 256 202 195 205 207 201 199 194 189 186 183 181 185 189 191 191 189 188 184 182 180 182 184 189 214 277 311 320 325 327 326
184 177 177 191 197 189 173 153 148 154 163 249 188 250 199 169 217 212 204 198 194 189 184 183 186 188 187 190 189 186 185 182 180 181 179 185 206 248 294 311 319 321 320 320
145 190 198 170 106 195 138 120 92 104 154 248 224 225 228 194 215 205 198 195 191 185 183 182 182 186 188 188 187 187 185 183 183 182 189 207 238 277 299 311 312 312 315 317
158 174 154 150 105 142 189 162 144 193 193 236 159 217 252 186 165 160 193 188 184 180 176 177 183 184 188 188 186 186 186 188 188 192 205 226 253 279 299 306 311 313 313 314
177 198 183 172 206 179 182 198 185 188 193 192 144 227 227 149 160 176 179 174 171 173 176 180 183 185 186 188 188 188 189 191 193 200 216 239 263 289 303 308 309 310 311 310
186 173 132 175 156 170 168 211 70 103 27 205 189 239 225 167 170 161 150 160 168 171 173 173 177 182 185 187 187 190 192 194 200 209 226 251 276 293 301 304 306 307 307 306
185 147 187 127 146 51 233 145 161 232 181 219 192 257 238 191 185 165 165 169 166 167 166 167 172 177 180 185 187 189 193 199 207 221 240 261 280 292 298 303 304 303 302 304
161 124 139 161 214 181 156 188 201 181 277 225 195 213 34 200 175 173 171 169 165 163 163 162 167 175 181 185 188 192 197 205 213 225 245 271 287 295 299 300 301 303 305 307
172 117 155 187 27 308 253 201 186 192 188 225 355 237 117 112 141 166 163 161 161 161 161 165 173 178 180 184 187 191 195 201 212 236 262 279 291 296 298 301 305 307 307 306
171 171 125 156 210 195 219 194 200 109 78 193 181 199 152 141 149 163 162 162 160 160 160 165 168 170 174 177 180 183 188 203 229 256 275 287 294 298 303 307 308 308 307 305
169 161 209 212 188 145 197 199 194 192 189 181 220 164 189 184 172 165 166 164 161 159 159 157 159 163 166 168 173 182 203 231 260 278 287 294 300 305 308 307 307 306 306 304
181 177 194 54 129 171 193 195 189 200 208 200 219 211 188 188 177 168 162 160 158 159 160 160 159 160 165 171 183 202 233 261 278 289 296 304 308 309 309 308 308 306 304 304
195 139 114 130 147 183 192 203 200 211 210 237 195 210 106 147 151 158 165 164 164 163 161 159 161 164 170 183 201 229 258 279 291 298 307 310 311 309 308 308 307 306 306 305
160 143 165 185 151 143 269 208 191 201 206 207 206 206 155 165 171 170 167 169 166 163 160 159 163 168 182 204 231 258 277 290 300 306 308 309 309 308 309 308 308 307 306 305
169 140 111 122 158 206 328 41 196 189 208 200 130 156 169 162 150 159 168 166 162 158 156 161 168 180 201 230 258 277 292 301 304 305 307 309 308 307 308 309 307 308 307 306
231 170 131 162 207 16 182 189 167 186 212 192 160 139 128 127 115 111 158 162 156 153 153 164 174 189 223 257 279 292 299 300 303 307 308 308 308 308 310 309 309 309 306 304
89 93 178 167 192 213 124 152 174 179 237 179 158 154 148 150 159 152 152 147 145 152 158 164 179 211 259 282 291 297 301 304 308 308 308 309 309 310 310 309 309 307 304 302
148 167 204 179 201 258 133 147 158 175 182 159 157 155 158 159 102 147 144 142 147 151 155 167 189 247 276 287 297 304 306 309 308 310 311 311 311 310 310 309 307 306 305 302
156 153 177 161 203 229 149 119 194 111 111 139 144 149 136 123 128 135 141 143 145 150 156 174 226 271 291 304 308 309 309 310 312 312 312 312 311 310 310 310 311 309 307 305
157 170 166 214 119 61 52 51 124 138 134 134 133 140 135 128 130 136 139 143 146 151 164 196 274 308 311 311 310 310 313 313 314 312 312 312 312 312 313 311 308 310 310 310
84 31 95 152 55 73 84 98 115 131 127 132 134 131 135 131 136 138 141 144 147 149 154 315 320 315 312 313 315 314 316 315 313 313 314 314 314 314 314 311 312 311 311 313
14 115 115 84 113 101 77 116 127 125 129 127 127 131 132 134 135 139 140 141 136 126 60 317 312 315 319 318 317 316 317 314 314 314 313 313 313 313 314 313 311 309 308 311
0 99 155 111 168 100 127 126 129 125 125 126 126 123 123 126 127 129 130 132 134 145 311 315 319 320 319 318 316 318 315 313 314 314 315 314 314 316 314 313 314 310 311 321